TimeCST,TemperatureF,Dew PointF,Humidity,Sea Level PressureIn,VisibilityMPH,Wind Direction,Wind SpeedMPH,Gust SpeedMPH,PrecipitationIn,Events,Conditions,WindDirDegrees,DateUTC
12:52 AM,39.9,32.0,73,29.69,10.0,SE,10.4,-,N/A,,Partly Cloudy,130,2011-11-12 06:52:00
1:52 AM,37.0,30.9,79,29.68,10.0,SSE,9.2,-,N/A,,Partly Cloudy,150,2011-11-12 07:52:00
2:52 AM,36.0,30.0,79,29.66,10.0,SE,10.4,-,N/A,,Partly Cloudy,140,2011-11-12 08:52:00
3:52 AM,37.0,30.9,79,29.65,10.0,SSE,6.9,-,N/A,,Scattered Clouds,150,2011-11-12 09:52:00
4:52 AM,36.0,32.0,86,29.64,10.0,SSE,8.1,-,N/A,,Clear,150,2011-11-12 10:52:00
5:52 AM,39.0,35.1,86,29.63,10.0,SSE,8.1,-,N/A,,Mostly Cloudy,160,2011-11-12 11:52:00
6:52 AM,37.4,35.6,93,29.59,10.0,SE,6.9,-,N/A,,Mostly Cloudy,140,2011-11-12 12:52:00
7:52 AM,39.9,35.1,83,29.62,10.0,SSE,9.2,-,N/A,,Overcast,150,2011-11-12 13:52:00
8:52 AM,42.1,37.0,82,29.61,10.0,South,15.0,-,N/A,,Overcast,170,2011-11-12 14:52:00
9:52 AM,45.0,37.0,74,29.58,10.0,SSE,13.8,-,N/A,,Overcast,160,2011-11-12 15:52:00
10:52 AM,48.0,37.9,68,29.57,10.0,South,13.8,-,N/A,,Overcast,180,2011-11-12 16:52:00
11:52 AM,50.0,37.0,61,29.54,10.0,South,11.5,-,N/A,,Mostly Cloudy,170,2011-11-12 17:52:00
12:52 PM,53.1,37.0,55,29.49,10.0,South,15.0,-,N/A,,Mostly Cloudy,170,2011-11-12 18:52:00
1:52 PM,53.1,37.9,57,29.47,10.0,SSE,11.5,-,N/A,,Mostly Cloudy,160,2011-11-12 19:52:00
2:52 PM,55.0,35.1,47,29.44,10.0,South,15.0,-,N/A,,Mostly Cloudy,180,2011-11-12 20:52:00
3:52 PM,55.9,36.0,47,29.43,10.0,South,13.8,23.0,N/A,,Mostly Cloudy,190,2011-11-12 21:52:00
4:52 PM,55.0,36.0,49,29.42,10.0,South,10.4,-,N/A,,Scattered Clouds,180,2011-11-12 22:52:00
5:52 PM,50.0,36.0,59,29.42,10.0,SSE,10.4,-,N/A,,Scattered Clouds,160,2011-11-12 23:52:00
6:52 PM,52.0,37.0,57,29.42,10.0,SSW,9.2,-,N/A,,Scattered Clouds,200,2011-11-13 00:52:00
7:52 PM,51.1,36.0,56,29.40,10.0,South,8.1,-,N/A,,Scattered Clouds,180,2011-11-13 01:52:00
8:52 PM,51.1,36.0,56,29.40,10.0,SSW,9.2,-,N/A,,Scattered Clouds,200,2011-11-13 02:52:00
9:52 PM,48.9,36.0,61,29.40,10.0,South,5.8,-,N/A,,Scattered Clouds,180,2011-11-13 03:52:00
10:52 PM,43.0,36.0,76,29.37,10.0,SSE,8.1,-,N/A,,Mostly Cloudy,150,2011-11-13 04:52:00
11:52 PM,41.0,36.0,82,29.34,10.0,SE,9.2,-,N/A,,Mostly Cloudy,140,2011-11-13 05:52:00